[[{"header":{"parameterUnit":"m.s-1","parameterCategory":2,"la1":30.2991,"la2":30.254,"lo1":-89.0895,"lo2":-89.0444,"dy":0.0017,"dx":0.0017,"nx":28,"ny":28,"refTime":"2024-08-17T03:00:00:Z","depth":"0","parameterNumber":2,"parameterNumberName":"U-component_of_CURRENTS"},"data":[0,0,0,0,0,0,0,0,0,0,0,0,0,0,0,0,0,0,0,0,0,0,0,0,0,0,0,0,0,0,0,0,0,0,0,0,0,0,0,0,0,0,0,0,0,0,0,0,0,0,0,0,0,0,0,0,0,0,0.2764,0.2765,0,0.2796,0.2796,0.2796,0.2772,0.2771,0.277,0.277,0.2823,0.2825,0.2827,0,0,0,0,0,0,0,0,0,0,0,0,0,0.2761,0.2761,0.2764,0.2765,0.2766,0.2796,0.2796,0.2796,0.2772,0.2771,0.277,0.2769,0.2822,0.2825,0.2827,0,0,0,0,0,0,0,0,0,0,0,0,0,0.2772,0.2761,0.2764,0.2759,0.2759,0.2796,0.2796,0.2796,0.2772,0.2771,0.277,0.2769,0.2821,0.2824,0.2828,0.2871,0,0,0.2837,0.2839,0,0,0,0,0,0,0,0,0.2771,0.2771,0.2759,0.276,0.276,0.2781,0.2815,0.2823,0.2773,0.2764,0.277,0.2768,0.2814,0.2817,0.2822,0.2873,0.2876,0.2838,0.284,0.2841,0.2842,0,0,0,0,0,0,0,0.277,0.2771,0.2774,0.276,0.2761,0.2783,0.2782,0.2816,0.2793,0.2765,0.2764,0.2773,0.2813,0.2818,0.2823,0.2876,0.2838,0.284,0.2842,0.2844,0.3,0.3002,0,0,0,0,0,0,0.2769,0.2769,0.2773,0.2775,0.2766,0.2783,0.2782,0.2773,0.2793,0.2795,0.2773,0.2771,0.2814,0.2819,0.2825,0.2903,0.2841,0.2844,0.2846,0.2998,0.3,0.3003,0,0,0,0,0,0,0.2769,0.2769,0.2772,0.2776,0.2779,0.2784,0.2775,0.2775,0.2779,0.2799,0.2801,0.2778,0.2813,0.282,0.2866,0.2904,0.2845,0.2848,0.2995,0.2999,0.3002,0.3043,0,0,0,0,0,0,0.2768,0.2768,0.2765,0.2776,0.2778,0.2811,0.2776,0.2776,0.2788,0.2785,0.2805,0.2808,0.2813,0.2861,0.2869,0.2907,0.2851,0.2992,0.2997,0.3001,0.3039,0.3048,0.3055,0,0,0,0,0,0.2768,0.2781,0.2764,0.2766,0.2772,0.2813,0.2817,0.2816,0.2789,0.281,0.2816,0.2807,0.2893,0.2866,0.2874,0.2914,0.299,0.2995,0.3,0.3036,0.3046,0.3055,0,0,0,0,0,0,0.2794,0.278,0.2762,0.2772,0.2795,0.281,0.2832,0.2821,0.284,0.2833,0.2834,0.2841,0.29,0.2905,0.2874,0.2974,0.2942,0.2949,0.2966,0.2976,0.2984,0.3032,0.2854,0,0,0,0,0,0.2793,0.2794,0.2795,0.2812,0.2817,0.282,0.2835,0.2833,0.2851,0.2856,0.287,0.2891,0.293,0.2947,0.2984,0.3035,0.3087,0.3069,0.3077,0.3083,0.3131,0.325,0.3273,0.3019,0.3019,0.3019,0,0,0.2814,0.2807,0.2809,0.2817,0.2828,0.2857,0.2826,0.2857,0.2886,0.2863,0.291,0.2925,0.2952,0.3012,0.3038,0.3017,0.3176,0.309,0.3095,0.314,0.3258,0.3283,0.3305,0.3023,0.3022,0.3021,0,0,0.2863,0.2843,0.2856,0.2874,0.2891,0.2895,0.2903,0.2919,0.2929,0.2975,0.2969,0.302,0.3056,0.3101,0.3121,0.3203,0.3219,0.3192,0.3267,0.338,0.3403,0.3424,0.3488,0.3515,0.319,0.319,0.319,0,0.2889,0.2889,0.2878,0.2902,0.2922,0.2912,0.2945,0.2967,0.2999,0.3031,0.3,0.3101,0.3116,0.3212,0.3234,0.3226,0.327,0.3219,0.3393,0.3414,0.3435,0.3497,0.3525,0.3192,0.3192,0.3192,0.3192,0,0.2939,0.2947,0.2968,0.2978,0.3008,0.304,0.306,0.3097,0.3096,0.3118,0.3207,0.3234,0.3298,0.3303,0.3291,0.3434,0.3411,0.3391,0.3367,0.3463,0.3521,0.355,0.3196,0.3195,0.3194,0.3194,0,0,0.2962,0.2991,0.2994,0.3014,0.3042,0.3077,0.314,0.3199,0.3263,0.3287,0.3377,0.3439,0.3446,0.3475,0.347,0.3565,0.3722,0.3537,0.3541,0.36,0.3947,0.381,0.3828,0.3724,0.373,0.3735,0.3917,0,0.2996,0.3043,0.3053,0.312,0.3144,0.3174,0.3246,0.3307,0.3353,0.3443,0.3481,0.3566,0.3509,0.3549,0.3632,0.3722,0.3806,0.3673,0.385,0.3855,0.3722,0.3861,0.3588,0.3719,0.3945,0.395,0.3953,0,0.3017,0.3046,0.3101,0.3183,0.3201,0.3252,0.3368,0.3435,0.3555,0.3597,0.3677,0.3703,0.3838,0.377,0.3978,0.3891,0.3934,0.3985,0.3993,0.3885,0.3775,0.3668,0.3763,0.361,0.3998,0.3994,0.3991,0,0.3011,0.3078,0.312,0.3144,0.3239,0.3295,0.3359,0.3483,0.3572,0.3709,0.3792,0.3908,0.3999,0.4095,0.4157,0.4096,0.4376,0.4301,0.4215,0.4203,0.4022,0.3984,0.3996,0.4467,0.4467,0.4466,0.4466,0,0.3027,0.3064,0.3123,0.3153,0.3258,0.3312,0.3451,0.3541,0.3683,0.3807,0.3869,0.3983,0.4096,0.4224,0.4251,0.4327,0.4451,0.4285,0.4272,0.4021,0.3982,0.3879,0.3848,0.4473,0.4471,0.447,0.4469,0,0.3027,0.305,0.312,0.3216,0.3256,0.334,0.3505,0.3614,0.3738,0.3906,0.3959,0.4112,0.4269,0.4347,0.4528,0.4455,0.4396,0.452,0.4188,0.4132,0.3852,0.3834,0.3818,0.3724,0.4471,0.4469,0.4467,0,0.303,0.3057,0.3165,0.3237,0.3288,0.3408,0.3507,0.3635,0.374,0.3969,0.4045,0.4237,0.4326,0.4508,0.4442,0.4474,0.4359,0.4225,0.4063,0.385,0.3824,0.371,0.3625,0.3833,0.3826,0.3821,0.3817,0,0.307,0.3101,0.318,0.3301,0.3401,0.3502,0.3628,0.3701,0.3852,0.3963,0.4117,0.421,0.4329,0.4219,0.4227,0.4196,0.3975,0.4112,0.4005,0.3445,0.3217,0.311,0.3677,0.3768,0.3773,0.3777,0.3779,0.3781,0.3119,0.3188,0.3283,0.3392,0.3493,0.3556,0.3578,0.3678,0.3773,0.3843,0.4029,0.4045,0.3981,0.3929,0.388,0.3549,0.3667,0.3364,0.34,0.3334,0.3122,0.3561,0.3556,0.356,0.3563,0.3565,0.3568,0,0.3188,0.326,0.3373,0.3471,0.3521,0.3563,0.3628,0.3575,0.3569,0.3676,0.3727,0.3587,0.3417,0.3325,0.3014,0.2842,0.272,0.2752,0.2529,0.2515,0.2991,0.2833,0.253,0.253,0.253,0.253,0.253,0.253,0.3242,0.3351,0.3384,0.3449,0.3486,0.3443,0.3415,0.3322,0.3319,0.317,0.3052,0.3054,0.2967,0.2701,0.2391,0.2317,0.2171,0.2025,0.2153,0.2446,0.2504,0.2559,0.24,0.2011,0.201,0.1476,0.1472,0.1469]},{"header":{"parameterUnit":"m.s-1","parameterCategory":2,"la1":30.2991,"la2":30.254,"lo1":-89.0895,"lo2":-89.0444,"dy":0.0017,"dx":0.0017,"nx":28,"ny":28,"refTime":"2024-08-17T03:00:00:Z","depth":"0","parameterNumber":3,"parameterNumberName":"V-component_of_CURRENTS"},"data":[0,0,0,0,0,0,0,0,0,0,0,0,0,0,0,0,0,0,0,0,0,0,0,0,0,0,0,0,0,0,0,0,0,0,0,0,0,0,0,0,0,0,0,0,0,0,0,0,0,0,0,0,0,0,0,0,0,0,0.0177,0.0177,0,0.0165,0.0165,0.0165,0.0143,0.0143,0.0142,0.0142,0.0137,0.0137,0.0138,0,0,0,0,0,0,0,0,0,0,0,0,0,0.0179,0.0179,0.0177,0.0177,0.0176,0.0165,0.0165,0.0165,0.0143,0.0143,0.0142,0.0142,0.0137,0.0137,0.0138,0,0,0,0,0,0,0,0,0,0,0,0,0,0.0174,0.0179,0.0177,0.0164,0.0163,0.0165,0.0165,0.0165,0.0143,0.0143,0.0142,0.0141,0.0137,0.0137,0.0138,0.0153,0,0,0.0139,0.0139,0,0,0,0,0,0,0,0,0.0174,0.0174,0.0166,0.0165,0.0164,0.0155,0.0164,0.0161,0.0143,0.0151,0.0142,0.0141,0.0144,0.0144,0.0143,0.0153,0.0153,0.0139,0.0139,0.014,0.014,0,0,0,0,0,0,0,0.0174,0.0174,0.0172,0.0166,0.0165,0.0159,0.0157,0.0163,0.0151,0.015,0.0148,0.0147,0.0143,0.0143,0.0143,0.0153,0.0139,0.0139,0.014,0.014,0.0204,0.0206,0,0,0,0,0,0,0.0177,0.0175,0.0173,0.0172,0.0167,0.0159,0.0158,0.0158,0.0151,0.0149,0.0148,0.0146,0.0142,0.0143,0.0143,0.0195,0.014,0.014,0.014,0.0203,0.0204,0.0206,0,0,0,0,0,0,0.0177,0.0177,0.0173,0.0173,0.0172,0.016,0.0161,0.0159,0.0159,0.0149,0.0148,0.0151,0.0142,0.0142,0.0157,0.0193,0.014,0.0141,0.0201,0.0203,0.0205,0.0278,0,0,0,0,0,0,0.0177,0.0177,0.018,0.0173,0.0172,0.0183,0.0161,0.0159,0.0159,0.0157,0.0152,0.015,0.0141,0.0157,0.0158,0.0193,0.0141,0.0199,0.0202,0.0205,0.0274,0.0282,0.029,0,0,0,0,0,0.0177,0.0187,0.018,0.018,0.0176,0.0184,0.0184,0.0173,0.016,0.0169,0.0165,0.015,0.0175,0.0158,0.0159,0.0195,0.0198,0.0201,0.0204,0.027,0.0281,0.029,0,0,0,0,0,0,0.0186,0.0185,0.0177,0.0185,0.0187,0.0181,0.0187,0.0178,0.0181,0.018,0.0165,0.0165,0.0194,0.0183,0.0165,0.0222,0.0186,0.0189,0.0236,0.0245,0.0253,0.0302,0.0141,0,0,0,0,0,0.019,0.02,0.0195,0.0203,0.0205,0.0197,0.0198,0.0193,0.0194,0.0194,0.0191,0.0194,0.0209,0.0216,0.0224,0.0252,0.0258,0.0277,0.0285,0.0292,0.0332,0.0376,0.0392,0.0217,0.0217,0.0217,0,0,0.0195,0.0197,0.0201,0.0206,0.0206,0.023,0.0197,0.0207,0.0233,0.0195,0.0228,0.0221,0.0223,0.0257,0.027,0.0252,0.0337,0.0296,0.0302,0.0339,0.0381,0.0398,0.0414,0.0219,0.0219,0.0218,0,0,0.0223,0.0213,0.0237,0.0246,0.0253,0.0253,0.0258,0.0259,0.0264,0.029,0.0277,0.0303,0.0306,0.0332,0.0341,0.0401,0.0377,0.0387,0.047,0.051,0.0526,0.054,0.0535,0.0548,0.0391,0.0392,0.0392,0,0.0231,0.0261,0.0245,0.0275,0.0295,0.0269,0.0309,0.0312,0.0319,0.0348,0.0311,0.0369,0.0356,0.0433,0.0447,0.0425,0.0422,0.043,0.0523,0.0537,0.055,0.0542,0.0555,0.0395,0.0395,0.0395,0.0394,0,0.0282,0.0309,0.0325,0.0359,0.0375,0.0404,0.0409,0.043,0.0427,0.0441,0.0503,0.0494,0.0538,0.0528,0.0503,0.0594,0.055,0.0526,0.0501,0.0572,0.0558,0.0571,0.0401,0.04,0.0398,0.0397,0,0,0.0303,0.0353,0.0363,0.0401,0.0427,0.0451,0.0498,0.055,0.0605,0.0605,0.069,0.0705,0.0703,0.0716,0.0692,0.0722,0.0782,0.0664,0.0664,0.0664,0.084,0.0766,0.0772,0.0765,0.0769,0.0771,0.0781,0,0.0356,0.0435,0.0447,0.0529,0.0573,0.058,0.0633,0.0675,0.0699,0.0769,0.0782,0.0841,0.0772,0.0797,0.0821,0.0817,0.0824,0.078,0.0769,0.0769,0.07,0.0789,0.0756,0.0759,0.0793,0.0795,0.0796,0,0.0411,0.0462,0.055,0.0636,0.0657,0.0699,0.0796,0.0842,0.092,0.0945,0.1006,0.1005,0.1079,0.0987,0.1029,0.0999,0.093,0.0899,0.0897,0.0826,0.0722,0.0701,0.0781,0.0649,0.0815,0.0814,0.0812,0,0.0452,0.054,0.0618,0.0645,0.0729,0.0779,0.0825,0.0903,0.0971,0.1067,0.1135,0.1191,0.1248,0.1207,0.1136,0.1089,0.1154,0.1077,0.0938,0.0928,0.0903,0.0887,0.0869,0.1086,0.1086,0.1086,0.1086,0,0.0515,0.0583,0.0643,0.069,0.0795,0.0831,0.0949,0.1002,0.1106,0.1228,0.1233,0.1345,0.1308,0.1327,0.1216,0.1141,0.1217,0.099,0.0953,0.092,0.0906,0.0789,0.0712,0.1086,0.1086,0.1086,0.1086,0,0.056,0.06,0.0692,0.0782,0.0816,0.089,0.1013,0.1108,0.1191,0.1353,0.1397,0.1498,0.1539,0.1454,0.1411,0.1261,0.1093,0.1103,0.1045,0.1,0.0721,0.0648,0.0614,0.0568,0.0967,0.0965,0.0964,0,0.0597,0.0645,0.0745,0.0807,0.0852,0.0958,0.1045,0.1141,0.1251,0.1458,0.1558,0.1645,0.174,0.1641,0.1414,0.1221,0.1074,0.1002,0.0908,0.074,0.0633,0.0581,0.0542,0.0884,0.0882,0.088,0.0879,0,0.0663,0.0687,0.0759,0.087,0.0964,0.1079,0.1209,0.1305,0.1456,0.1616,0.1835,0.1932,0.1839,0.1676,0.1378,0.1217,0.0906,0.0962,0.0838,0.0625,0.0528,0.0452,0.0803,0.0867,0.0868,0.0869,0.087,0.087,0.0705,0.0758,0.0837,0.0943,0.1056,0.12,0.1309,0.1475,0.1677,0.1934,0.2015,0.2196,0.1873,0.1497,0.1275,0.0781,0.0809,0.0603,0.0543,0.0518,0.0443,0.0742,0.0728,0.0728,0.0728,0.0729,0.0729,0,0.0751,0.0812,0.0913,0.1046,0.1171,0.1221,0.1426,0.1561,0.1818,0.2061,0.2258,0.2177,0.1794,0.1376,0.0695,0.0405,0.0329,0.0256,0.0193,0.0184,0.0497,0.0461,0.033,0.033,0.033,0.0331,0.0331,0.0331,0.0785,0.0873,0.0917,0.111,0.1215,0.1398,0.1519,0.1743,0.1946,0.2212,0.2315,0.236,0.1957,0.0868,0.0186,0.0056,-0.0097,-0.0153,-0.0203,-0.0002,0.0026,0.0053,0.0003,-0.0221,-0.0222,-0.0484,-0.0487,-0.0489]}],[{"header":{"parameterUnit":"m.s-1","parameterCategory":2,"la1":30.2991,"la2":30.254,"lo1":-89.0895,"lo2":-89.0444,"dy":0.0017,"dx":0.0017,"nx":28,"ny":28,"refTime":"2024-08-17T03:00:00:Z","depth":"2","parameterNumber":2,"parameterNumberName":"U-component_of_CURRENTS"},"data":[0,0,0,0,0,0,0,0,0,0,0,0,0,0,0,0,0,0,0,0,0,0,0,0,0,0,0,0,0,0,0,0,0,0,0,0,0,0,0,0,0,0,0,0,0,0,0,0,0,0,0,0,0,0,0,0,0,0,0.2215,0.2215,0,0.2234,0.2234,0.2234,0.2248,0.2248,0.2249,0.2249,0.2289,0.229,0.2291,0,0,0,0,0,0,0,0,0,0,0,0,0,0.2217,0.2216,0.2215,0.2216,0.2216,0.2234,0.2234,0.2234,0.2248,0.2248,0.2249,0.225,0.2289,0.229,0.2291,0,0,0,0,0,0,0,0,0,0,0,0,0,0.2221,0.2216,0.2215,0.2228,0.2229,0.2234,0.2234,0.2234,0.2248,0.2249,0.2249,0.225,0.2289,0.229,0.2291,0.2284,0,0,0.2294,0.2294,0,0,0,0,0,0,0,0,0.222,0.222,0.2225,0.2227,0.2229,0.2242,0.225,0.2253,0.2248,0.2237,0.2249,0.225,0.2277,0.2279,0.2276,0.2286,0.2287,0.2294,0.2294,0.2295,0.2295,0,0,0,0,0,0,0,0.222,0.222,0.2219,0.2226,0.2228,0.2242,0.2243,0.225,0.2251,0.2238,0.224,0.2247,0.2278,0.2275,0.2277,0.2288,0.2294,0.2295,0.2295,0.2296,0.2403,0.2405,0,0,0,0,0,0,0.2222,0.2219,0.2219,0.222,0.223,0.2241,0.2242,0.2235,0.2251,0.2254,0.2247,0.2248,0.2273,0.2276,0.2279,0.2358,0.2295,0.2296,0.2296,0.2401,0.2403,0.2406,0,0,0,0,0,0,0.2222,0.2221,0.2218,0.2224,0.2225,0.2241,0.2232,0.2235,0.2248,0.2258,0.2261,0.226,0.2274,0.2278,0.2318,0.2357,0.2296,0.2297,0.2398,0.2402,0.2405,0.2461,0,0,0,0,0,0,0.2222,0.2221,0.2223,0.2223,0.2225,0.2245,0.2232,0.2235,0.2252,0.2254,0.227,0.2273,0.2275,0.2317,0.2319,0.2357,0.2298,0.2395,0.24,0.2404,0.2456,0.2466,0.2474,0,0,0,0,0,0.2221,0.2229,0.2222,0.2223,0.2224,0.2247,0.225,0.2261,0.2252,0.2271,0.2286,0.2274,0.2346,0.2319,0.2321,0.236,0.2393,0.2398,0.2403,0.2452,0.2464,0.2474,0,0,0,0,0,0,0.2239,0.2231,0.2224,0.223,0.2247,0.2251,0.2272,0.2268,0.229,0.2298,0.2294,0.23,0.2355,0.235,0.232,0.2407,0.2371,0.2376,0.2407,0.2418,0.2427,0.2454,0.2299,0,0,0,0,0,0.2239,0.2244,0.2242,0.2255,0.2261,0.2264,0.2275,0.2284,0.23,0.231,0.2322,0.2343,0.2374,0.2389,0.2416,0.245,0.2472,0.2482,0.249,0.2498,0.2524,0.2604,0.2622,0.2423,0.2422,0.2422,0,0,0.2249,0.2251,0.2251,0.226,0.227,0.2292,0.2272,0.2303,0.2327,0.2311,0.2357,0.2376,0.2393,0.2445,0.2469,0.2446,0.2561,0.2504,0.251,0.2533,0.2611,0.2631,0.2648,0.2426,0.2425,0.2425,0,0,0.2278,0.2273,0.2283,0.2298,0.2323,0.2331,0.2341,0.2356,0.237,0.2408,0.2415,0.2473,0.2488,0.2533,0.2548,0.2624,0.261,0.2616,0.2676,0.2753,0.277,0.2786,0.2814,0.2831,0.2615,0.2615,0.2615,0,0.2295,0.23,0.2297,0.2318,0.2332,0.2349,0.2367,0.2392,0.2424,0.2447,0.2437,0.2516,0.2543,0.2616,0.2655,0.2648,0.2662,0.2628,0.2765,0.2781,0.2796,0.2821,0.284,0.2618,0.2618,0.2618,0.2617,0,0.2319,0.2337,0.2354,0.2377,0.2393,0.2426,0.2445,0.2503,0.2517,0.2521,0.2595,0.2632,0.2683,0.2701,0.2703,0.2817,0.2781,0.2769,0.2735,0.2819,0.284,0.2858,0.2623,0.2622,0.2621,0.262,0,0,0.2316,0.236,0.2365,0.2395,0.2424,0.2451,0.2517,0.2569,0.2615,0.2656,0.2714,0.2789,0.2797,0.2821,0.2832,0.2906,0.3028,0.2884,0.2887,0.2906,0.316,0.3021,0.3027,0.3028,0.3032,0.3035,0.3122,0,0.2339,0.2381,0.2391,0.2457,0.248,0.2533,0.2565,0.2621,0.267,0.2742,0.2799,0.2853,0.2836,0.2877,0.2947,0.3026,0.3084,0.3004,0.3082,0.3084,0.2946,0.3047,0.2767,0.2812,0.314,0.3143,0.3145,0,0.2343,0.2376,0.2412,0.2486,0.2496,0.2538,0.2631,0.2671,0.2769,0.2811,0.2892,0.2914,0.305,0.3017,0.3175,0.3117,0.3152,0.3192,0.3196,0.3066,0.298,0.2787,0.2833,0.3176,0.3174,0.3171,0.3169,0,0.2323,0.24,0.243,0.2452,0.252,0.2574,0.2621,0.2689,0.2719,0.2881,0.2934,0.3041,0.3142,0.3207,0.3296,0.3247,0.3453,0.339,0.3282,0.327,0.3051,0.3013,0.35,0.3499,0.3499,0.3499,0.3499,0,0.2333,0.2374,0.2437,0.2465,0.2515,0.2553,0.2614,0.2708,0.278,0.2869,0.2955,0.3059,0.3205,0.3317,0.3345,0.3381,0.3492,0.3323,0.3304,0.3057,0.302,0.3351,0.3333,0.3502,0.3502,0.3501,0.35,0,0.231,0.2344,0.2391,0.2468,0.2507,0.2532,0.2611,0.2655,0.2744,0.2895,0.2958,0.3121,0.3283,0.336,0.3525,0.3454,0.35,0.3476,0.3154,0.3095,0.3238,0.3222,0.3345,0.3342,0.3338,0.3336,0.3333,0,0.23,0.2315,0.2387,0.2409,0.2456,0.2514,0.2551,0.2641,0.2712,0.2943,0.3024,0.3209,0.3315,0.3419,0.3379,0.3361,0.3473,0.3085,0.2942,0.3264,0.3233,0.3222,0.321,0.2667,0.266,0.2654,0.2649,0,0.2294,0.2301,0.2317,0.2375,0.2426,0.2483,0.2581,0.2584,0.2757,0.2858,0.302,0.3103,0.323,0.3086,0.3074,0.3026,0.3054,0.2953,0.3434,0.2735,0.2628,0.2596,0.2607,0.2594,0.26,0.2604,0.2607,0.2609,0.225,0.2236,0.2277,0.2298,0.238,0.2442,0.2454,0.2528,0.2575,0.2675,0.287,0.2887,0.2921,0.2697,0.2612,0.2527,0.2718,0.2574,0.2592,0.2617,0.2509,0.24,0.2302,0.2306,0.2309,0.2312,0.2314,0,0.2177,0.2191,0.2232,0.2252,0.2299,0.2423,0.2482,0.2421,0.2425,0.2491,0.2544,0.2315,0.2191,0.2237,0.1996,0.1945,0.1924,0.1878,0.1836,0.1891,0.194,0.1797,0.1402,0.1399,0.1396,0.1394,0,0,0.213,0.2123,0.2129,0.2169,0.2232,0.2304,0.2309,0.2221,0.2191,0.2012,0.1969,0.2071,0.2159,0.1756,0.1675,0.1511,0.1695,0.1443,0.2174,0.2182,0.2228,0.2337,0.2178,0,0,0,0,0]},{"header":{"parameterUnit":"m.s-1","parameterCategory":2,"la1":30.2991,"la2":30.254,"lo1":-89.0895,"lo2":-89.0444,"dy":0.0017,"dx":0.0017,"nx":28,"ny":28,"refTime":"2024-08-17T03:00:00:Z","depth":"2","parameterNumber":3,"parameterNumberName":"V-component_of_CURRENTS"},"data":[0,0,0,0,0,0,0,0,0,0,0,0,0,0,0,0,0,0,0,0,0,0,0,0,0,0,0,0,0,0,0,0,0,0,0,0,0,0,0,0,0,0,0,0,0,0,0,0,0,0,0,0,0,0,0,0,0,0,0.0018,0.0018,0,0.0009,0.0009,0.0009,-0.0004,-0.0004,-0.0005,-0.0005,-0.0025,-0.0025,-0.0025,0,0,0,0,0,0,0,0,0,0,0,0,0,0.0024,0.0024,0.0018,0.0018,0.0018,0.0009,0.0009,0.0009,-0.0004,-0.0004,-0.0005,-0.0005,-0.0024,-0.0025,-0.0025,0,0,0,0,0,0,0,0,0,0,0,0,0,0.002,0.0024,0.0018,0.001,0.0009,0.0009,0.0009,0.0009,-0.0004,-0.0004,-0.0005,-0.0005,-0.0024,-0.0025,-0.0025,-0.002,0,0,-0.0027,-0.0027,0,0,0,0,0,0,0,0,0.002,0.0019,0.0011,0.001,0.001,0.0003,0.0004,-0.0002,-0.0004,0.0001,-0.0005,-0.0005,-0.0016,-0.0018,-0.0018,-0.0021,-0.0022,-0.0027,-0.0027,-0.0027,-0.0027,0,0,0,0,0,0,0,0.002,0.002,0.0015,0.0011,0.001,0.0007,0.0006,0.0003,-0.0005,0.0001,-0.0,-0.0002,-0.0017,-0.0017,-0.0018,-0.0022,-0.0027,-0.0027,-0.0027,-0.0027,-0.0008,-0.0007,0,0,0,0,0,0,0.0021,0.002,0.0015,0.0014,0.0013,0.0007,0.0006,0.0006,-0.0005,-0.0007,-0.0001,-0.0002,-0.0016,-0.0018,-0.0019,0.0007,-0.0027,-0.0027,-0.0028,-0.0009,-0.0008,-0.0007,0,0,0,0,0,0,0.0021,0.0021,0.0015,0.0017,0.0016,0.0007,0.0007,0.0006,0.0007,-0.0007,-0.0009,0.0002,-0.0017,-0.0018,-0.0014,0.0005,-0.0028,-0.0028,-0.001,-0.0008,-0.0007,0.0045,0,0,0,0,0,0,0.0021,0.0021,0.0022,0.0017,0.0016,0.0022,0.0008,0.0006,0.0006,0.0005,-0.0005,-0.0007,-0.0017,-0.0013,-0.0014,0.0004,-0.0028,-0.0011,-0.0009,-0.0008,0.0042,0.0048,0.0052,0,0,0,0,0,0.0022,0.0028,0.0022,0.0022,0.0017,0.0023,0.0022,0.0015,0.0007,0.0013,0.0007,-0.0007,-0.0005,-0.0013,-0.0014,0.0004,-0.0011,-0.0009,-0.0008,0.004,0.0047,0.0052,0,0,0,0,0,0,0.0028,0.0027,0.0021,0.0025,0.0026,0.002,0.0026,0.0019,0.0019,0.0019,0.0003,0.0001,0.0012,0.0,-0.0008,0.0014,-0.001,-0.0008,0.0027,0.0033,0.0038,0.0054,-0.0029,0,0,0,0,0,0.003,0.0038,0.0033,0.0037,0.004,0.0033,0.0034,0.003,0.0028,0.0028,0.002,0.0016,0.0018,0.0019,0.0016,0.0029,0.0017,0.0039,0.0044,0.0049,0.0061,0.0073,0.0081,-0.0001,-0.0001,-0.0001,0,0,0.003,0.0034,0.0035,0.0039,0.004,0.0055,0.0033,0.0041,0.0054,0.0026,0.0042,0.0032,0.0024,0.0039,0.0043,0.0033,0.0061,0.0051,0.0055,0.0064,0.0076,0.0084,0.0091,0.0,-0.0,-0.0,0,0,0.0047,0.0042,0.0058,0.0065,0.0071,0.0071,0.0075,0.0074,0.0075,0.0087,0.0073,0.0078,0.0075,0.0079,0.008,0.0112,0.0086,0.0106,0.0147,0.016,0.0167,0.0173,0.0146,0.0149,0.011,0.0111,0.0111,0,0.0049,0.007,0.0063,0.0085,0.0094,0.0082,0.0104,0.0107,0.0107,0.0118,0.0099,0.011,0.0099,0.0126,0.0137,0.0125,0.0113,0.0125,0.0167,0.0173,0.0179,0.015,0.0153,0.0113,0.0113,0.0113,0.0112,0,0.0081,0.01,0.0113,0.0137,0.0143,0.0163,0.0164,0.0179,0.0175,0.0175,0.0194,0.0179,0.019,0.0183,0.017,0.0205,0.0176,0.0171,0.0154,0.0191,0.0157,0.0159,0.0117,0.0116,0.0115,0.0115,0,0,0.0092,0.0129,0.0136,0.0162,0.0176,0.019,0.0216,0.0242,0.0268,0.0261,0.0299,0.0289,0.0278,0.0278,0.0259,0.0265,0.028,0.0238,0.0237,0.0213,0.028,0.0235,0.0232,0.0285,0.0287,0.0288,0.0233,0,0.0125,0.018,0.0184,0.0236,0.0266,0.0269,0.0291,0.0309,0.0317,0.0352,0.0344,0.0366,0.0314,0.0327,0.0324,0.0309,0.0293,0.0294,0.0246,0.0244,0.0203,0.0236,0.0246,0.0197,0.0235,0.0235,0.0235,0,0.0162,0.0198,0.0252,0.03,0.0311,0.0333,0.038,0.0402,0.0436,0.0445,0.0463,0.0455,0.0475,0.0425,0.0397,0.0401,0.0342,0.0309,0.0307,0.0253,0.0205,0.0171,0.0199,0.0239,0.0238,0.0238,0.0238,0,0.0188,0.0248,0.0297,0.0313,0.0357,0.0384,0.0406,0.0432,0.047,0.0518,0.0551,0.0552,0.059,0.0522,0.0455,0.0432,0.0417,0.0375,0.0263,0.0257,0.0252,0.0244,0.034,0.034,0.034,0.034,0.034,0,0.023,0.0273,0.0317,0.0348,0.0408,0.0417,0.0479,0.0503,0.0555,0.0635,0.0603,0.068,0.0624,0.0609,0.0499,0.0401,0.0448,0.0278,0.0254,0.0265,0.026,0.029,0.0285,0.0338,0.0338,0.0339,0.0339,0,0.0253,0.0285,0.0346,0.0401,0.0424,0.0466,0.0536,0.0589,0.0615,0.0729,0.0758,0.0809,0.0795,0.0683,0.0612,0.0481,0.0372,0.0314,0.0312,0.0288,0.0178,0.0177,0.0172,0.017,0.0169,0.0168,0.0167,0,0.0271,0.0303,0.038,0.0424,0.0454,0.052,0.0575,0.0625,0.0699,0.0826,0.0903,0.093,0.0984,0.0818,0.0606,0.0383,0.0369,0.0232,0.0182,0.0191,0.0168,0.0168,0.0169,0.018,0.0179,0.0178,0.0178,0,0.0294,0.0315,0.0364,0.0464,0.0535,0.0625,0.0715,0.0802,0.0904,0.1005,0.1172,0.1225,0.1059,0.0892,0.0573,0.0416,0.0264,0.0207,0.0259,0.0218,0.0194,0.0172,0.0173,0.0172,0.0172,0.0173,0.0173,0.0173,0.0304,0.0345,0.0415,0.0516,0.0603,0.0753,0.0852,0.0994,0.1169,0.1341,0.1361,0.1402,0.1167,0.0762,0.0505,0.0208,0.0209,0.0097,0.0102,0.0107,0.0116,0.009,0.0047,0.0047,0.0047,0.0047,0.0047,0,0.0344,0.0396,0.0471,0.0612,0.0732,0.0767,0.0962,0.1096,0.1353,0.145,0.1553,0.1315,0.1093,0.0799,0.0348,0.0086,0.0075,0.001,0.0059,0.0067,0.0073,0.0082,0.0003,0.0002,0.0002,0.0001,0,0,0.0369,0.0454,0.0505,0.0711,0.081,0.0988,0.1117,0.1337,0.1451,0.1588,0.1568,0.1484,0.1151,0.0815,0.0478,0.0244,0.0211,0.0191,0.0249,0.0354,0.0363,0.0142,0.0166,0,0,0,0,0]}],[{"header":{"parameterUnit":"m.s-1","parameterCategory":2,"la1":30.2991,"la2":30.254,"lo1":-89.0895,"lo2":-89.0444,"dy":0.0017,"dx":0.0017,"nx":28,"ny":28,"refTime":"2024-08-17T03:00:00:Z","depth":"4","parameterNumber":2,"parameterNumberName":"U-component_of_CURRENTS"},"data":[0,0,0,0,0,0,0,0,0,0,0,0,0,0,0,0,0,0,0,0,0,0,0,0,0,0,0,0,0,0,0,0,0,0,0,0,0,0,0,0,0,0,0,0,0,0,0,0,0,0,0,0,0,0,0,0,0,0,0.1317,0.1317,0,0.1339,0.1339,0.1339,0.1363,0.1364,0.1365,0.1365,0.1394,0.1394,0.1394,0,0,0,0,0,0,0,0,0,0,0,0,0,0.1288,0.1288,0.1317,0.1317,0.1318,0.1339,0.1339,0.1339,0.1363,0.1364,0.1365,0.1366,0.1394,0.1394,0.1394,0,0,0,0,0,0,0,0,0,0,0,0,0,0.1301,0.1288,0.1316,0.1335,0.1337,0.1339,0.1339,0.1339,0.1363,0.1364,0.1365,0.1366,0.1394,0.1394,0.1394,0.1375,0,0,0.1395,0.1395,0,0,0,0,0,0,0,0,0.13,0.1301,0.1332,0.1334,0.1336,0.1353,0.134,0.1352,0.1363,0.1349,0.1365,0.1367,0.1382,0.1383,0.138,0.1376,0.1377,0.1395,0.1395,0.1395,0.1395,0,0,0,0,0,0,0,0.1299,0.13,0.1322,0.1332,0.1335,0.134,0.1343,0.1342,0.1357,0.1351,0.1353,0.1361,0.1383,0.138,0.1381,0.1378,0.1395,0.1395,0.1395,0.1395,0.1462,0.1464,0,0,0,0,0,0,0.1303,0.1299,0.1321,0.1323,0.1324,0.134,0.1343,0.1343,0.1357,0.1361,0.136,0.1362,0.1379,0.1381,0.1382,0.1442,0.1395,0.1395,0.1395,0.1461,0.1463,0.1465,0,0,0,0,0,0,0.1302,0.1304,0.132,0.1315,0.1318,0.134,0.134,0.1343,0.1372,0.1365,0.1369,0.139,0.138,0.1382,0.1411,0.144,0.1395,0.1395,0.1459,0.1461,0.1464,0.1509,0,0,0,0,0,0,0.1301,0.1303,0.1319,0.1315,0.1319,0.1337,0.134,0.1343,0.1375,0.1378,0.139,0.1392,0.1381,0.1411,0.1411,0.144,0.1396,0.1457,0.146,0.1463,0.1506,0.1513,0.152,0,0,0,0,0,0.1299,0.131,0.1319,0.1323,0.1334,0.1338,0.134,0.1356,0.1376,0.1386,0.1404,0.1394,0.1431,0.1412,0.1412,0.1442,0.1455,0.1459,0.1463,0.1503,0.1512,0.1519,0,0,0,0,0,0,0.1306,0.1314,0.1324,0.1338,0.1347,0.1344,0.1363,0.1374,0.1395,0.1412,0.1407,0.1409,0.1452,0.1441,0.142,0.1473,0.1445,0.1449,0.1476,0.1484,0.1491,0.1499,0.1396,0,0,0,0,0,0.1315,0.1328,0.1332,0.1347,0.1355,0.1366,0.1378,0.1389,0.1402,0.1414,0.1425,0.1443,0.1461,0.1469,0.1481,0.15,0.1509,0.1523,0.153,0.1536,0.1545,0.1595,0.1607,0.1477,0.1477,0.1477,0,0,0.132,0.1331,0.1338,0.1351,0.1363,0.137,0.1376,0.1401,0.1417,0.1413,0.1451,0.1472,0.1475,0.1504,0.1521,0.15,0.1577,0.1541,0.1545,0.1551,0.16,0.1612,0.1624,0.148,0.1479,0.1479,0,0,0.1329,0.135,0.136,0.1372,0.1398,0.1398,0.1414,0.143,0.1452,0.1483,0.1495,0.1534,0.1552,0.1561,0.1567,0.1618,0.1619,0.1631,0.1662,0.171,0.1721,0.1731,0.1753,0.1765,0.1625,0.1626,0.1626,0,0.1338,0.1348,0.1364,0.1378,0.139,0.1414,0.1422,0.1442,0.1471,0.1496,0.1507,0.1572,0.1577,0.1613,0.1637,0.1633,0.1658,0.1626,0.1719,0.1729,0.1738,0.1759,0.1771,0.1628,0.1628,0.1628,0.1627,0,0.1342,0.1363,0.1373,0.1393,0.1407,0.1424,0.1446,0.1478,0.1514,0.1538,0.1606,0.1625,0.1665,0.1676,0.1672,0.1742,0.1737,0.1728,0.1695,0.1754,0.1772,0.1783,0.1632,0.1631,0.163,0.163,0,0,0.1322,0.1364,0.1372,0.1381,0.1419,0.142,0.1464,0.1496,0.1532,0.1588,0.1641,0.169,0.1729,0.1739,0.1751,0.179,0.1872,0.1794,0.1795,0.1811,0.1977,0.1822,0.1819,0.189,0.1893,0.1895,0.196,0,0.1319,0.1339,0.1366,0.1383,0.1387,0.1429,0.1461,0.1506,0.1553,0.1615,0.1673,0.1735,0.1743,0.1781,0.1826,0.1873,0.1908,0.1855,0.1922,0.1924,0.1775,0.1829,0.1903,0.1968,0.1971,0.1973,0.1974,0,0.1308,0.1322,0.134,0.1372,0.138,0.1404,0.1457,0.1494,0.1589,0.1637,0.172,0.1774,0.1864,0.1858,0.1969,0.1943,0.197,0.1992,0.1994,0.1842,0.179,0.19,0.1995,0.1993,0.1992,0.199,0.1989,0,0.1263,0.1299,0.1312,0.1324,0.1369,0.1399,0.1434,0.1513,0.1548,0.1673,0.1722,0.1833,0.1912,0.1973,0.2033,0.2022,0.2136,0.2117,0.1995,0.1984,0.2083,0.2072,0.2186,0.2186,0.2186,0.2186,0.2186,0,0.1232,0.1243,0.1299,0.1303,0.1317,0.138,0.1422,0.1475,0.1573,0.1625,0.1746,0.1804,0.1955,0.2032,0.2061,0.2062,0.2163,0.201,0.1995,0.2099,0.2089,0.209,0.2078,0.2188,0.2188,0.2187,0.2187,0,0.1168,0.122,0.1225,0.1279,0.1295,0.1314,0.1387,0.1409,0.1536,0.161,0.1661,0.1825,0.1944,0.2034,0.2148,0.2087,0.2101,0.2068,0.2171,0.216,0.1909,0.1899,0.1943,0.1938,0.1934,0.1931,0.1928,0,0.1131,0.1125,0.1176,0.1176,0.1202,0.1245,0.1257,0.1373,0.1404,0.1598,0.1617,0.1796,0.1892,0.193,0.2035,0.2068,0.2041,0.2015,0.1963,0.1905,0.1888,0.1884,0.188,0.1921,0.192,0.1919,0.1918,0,0.1009,0.1045,0.1041,0.1063,0.1079,0.1089,0.1138,0.116,0.1314,0.1434,0.155,0.1633,0.1762,0.1863,0.1903,0.1916,0.2014,0.1972,0.198,0.1931,0.1879,0.1865,0.1866,0.1904,0.1906,0.1907,0.1908,0,0.0906,0.0879,0.0893,0.0908,0.0921,0.0929,0.0985,0.1044,0.1111,0.1343,0.1385,0.1582,0.1757,0.1783,0.1814,0.1823,0.1797,0.1713,0.1735,0.1751,0.1656,0.156,0.1482,0,0,0,0,0,0.0785,0.0743,0.0727,0.0738,0.0757,0.0792,0.0879,0.0959,0.1131,0.1163,0.1278,0.1392,0.15,0.1599,0.1575,0.1708,0.1783,0.1666,0.1692,0.1826,0.1842,0.1746,0,0,0,0,0,0,0.0707,0.0667,0.0672,0.0594,0.0588,0.0605,0.0678,0.0808,0.0851,0.1048,0.1128,0.126,0.1396,0.1499,0.1535,0.1557,0.1532,0.1777,0.1772,0.1816,0.1831,0.1844,0.1752,0,0,0,0,0]},{"header":{"parameterUnit":"m.s-1","parameterCategory":2,"la1":30.2991,"la2":30.254,"lo1":-89.0895,"lo2":-89.0444,"dy":0.0017,"dx":0.0017,"nx":28,"ny":28,"refTime":"2024-08-17T03:00:00:Z","depth":"4","parameterNumber":3,"parameterNumberName":"V-component_of_CURRENTS"},"data":[0,0,0,0,0,0,0,0,0,0,0,0,0,0,0,0,0,0,0,0,0,0,0,0,0,0,0,0,0,0,0,0,0,0,0,0,0,0,0,0,0,0,0,0,0,0,0,0,0,0,0,0,0,0,0,0,0,0,0.0026,0.0026,0,0.0021,0.0021,0.0021,0.0015,0.0015,0.0015,0.0014,0.0002,0.0002,0.0002,0,0,0,0,0,0,0,0,0,0,0,0,0,0.0028,0.0028,0.0026,0.0026,0.0026,0.0021,0.0021,0.0021,0.0015,0.0015,0.0015,0.0014,0.0002,0.0002,0.0002,0,0,0,0,0,0,0,0,0,0,0,0,0,0.0026,0.0028,0.0026,0.0021,0.0021,0.0021,0.0021,0.0021,0.0015,0.0015,0.0014,0.0014,0.0002,0.0002,0.0002,0.0005,0,0,0.0001,0.0001,0,0,0,0,0,0,0,0,0.0026,0.0026,0.0022,0.0022,0.0021,0.0018,0.0017,0.0015,0.0015,0.0018,0.0014,0.0014,0.0006,0.0006,0.0007,0.0005,0.0004,0.0001,0.0001,0.0001,0.0001,0,0,0,0,0,0,0,0.0026,0.0026,0.0025,0.0022,0.0021,0.0019,0.0018,0.0017,0.0014,0.0018,0.0017,0.0015,0.0006,0.0007,0.0006,0.0004,0.0001,0.0001,0.0001,0.0001,0.0002,0.0003,0,0,0,0,0,0,0.0026,0.0026,0.0025,0.0024,0.0022,0.0019,0.0019,0.002,0.0014,0.0013,0.0016,0.0015,0.0007,0.0007,0.0006,0.0015,0.0001,0.0001,0.0,0.0002,0.0003,0.0003,0,0,0,0,0,0,0.0026,0.0026,0.0025,0.0024,0.0024,0.0019,0.002,0.002,0.0021,0.0013,0.0011,0.0018,0.0007,0.0006,0.0009,0.0014,0.0,0.0,0.0002,0.0002,0.0003,0.003,0,0,0,0,0,0,0.0026,0.0026,0.0027,0.0025,0.0024,0.003,0.0021,0.002,0.002,0.002,0.0014,0.0013,0.0007,0.001,0.0009,0.0014,0.0,0.0002,0.0002,0.0003,0.0028,0.0031,0.0033,0,0,0,0,0,0.0026,0.0031,0.0027,0.0027,0.0026,0.003,0.003,0.0026,0.0021,0.0026,0.0022,0.0013,0.0011,0.001,0.0009,0.0014,0.0002,0.0002,0.0002,0.0027,0.003,0.0033,0,0,0,0,0,0,0.003,0.0031,0.0026,0.003,0.0031,0.0029,0.0033,0.0028,0.0029,0.0029,0.0019,0.0018,0.002,0.0014,0.0012,0.0014,0.0004,0.0004,0.0023,0.0025,0.0028,0.0029,-0.0,0,0,0,0,0,0.0031,0.0037,0.0035,0.0038,0.004,0.0036,0.0037,0.0036,0.0035,0.0035,0.0031,0.0025,0.0021,0.0021,0.0017,0.0022,0.0005,0.0023,0.0025,0.0027,0.0027,0.0007,0.0008,0.0004,0.0004,0.0004,0,0,0.0032,0.0034,0.0036,0.004,0.004,0.0049,0.0037,0.0043,0.0048,0.0034,0.0042,0.0033,0.0023,0.0027,0.0028,0.0024,0.0018,0.0028,0.0029,0.0028,0.0008,0.0008,0.0008,0.0005,0.0004,0.0004,0,0,0.0042,0.0041,0.0051,0.0056,0.006,0.0059,0.0061,0.0062,0.0062,0.0068,0.0056,0.0049,0.005,0.0041,0.0037,0.0048,0.0028,0.0048,0.0064,0.0045,0.0045,0.0045,0.002,0.0018,0.0052,0.0052,0.0052,0,0.0043,0.0057,0.0054,0.0068,0.0075,0.0065,0.008,0.0078,0.008,0.0082,0.0075,0.0066,0.0054,0.0054,0.0056,0.0052,0.0038,0.0056,0.0047,0.0047,0.0046,0.0021,0.0018,0.0053,0.0053,0.0053,0.0053,0,0.0063,0.0075,0.0083,0.0097,0.0104,0.0116,0.0114,0.0117,0.0113,0.0111,0.0111,0.0093,0.0089,0.0081,0.0072,0.0065,0.0056,0.005,0.0041,0.0048,0.0021,0.0018,0.0055,0.0055,0.0054,0.0054,0,0,0.0068,0.0092,0.0097,0.0116,0.0123,0.0137,0.0141,0.0149,0.016,0.0147,0.016,0.0136,0.0125,0.0118,0.0103,0.0083,0.0061,0.0069,0.0067,0.0045,0.0017,0.0011,0.0006,0.0058,0.0057,0.0057,-0.0001,0,0.0087,0.0124,0.0127,0.0163,0.0184,0.0179,0.0192,0.0196,0.0191,0.02,0.0171,0.0177,0.0141,0.0144,0.0116,0.0082,0.0053,0.0077,0.0013,0.0011,0.0005,0.0002,0.0056,-0.0004,-0.0005,-0.0005,-0.0006,0,0.0106,0.0134,0.0173,0.0212,0.0222,0.0238,0.0262,0.0276,0.0271,0.0269,0.0253,0.0232,0.0204,0.0174,0.0101,0.0121,0.0068,0.0032,0.0029,0.0011,-0.0002,-0.0012,-0.0013,-0.0012,-0.0012,-0.0011,-0.0011,0,0.0125,0.0167,0.0204,0.0216,0.0254,0.0271,0.0293,0.0298,0.033,0.0317,0.0332,0.0282,0.0277,0.02,0.0109,0.0111,0.0025,0.0019,-0.0044,-0.0045,-0.0034,-0.0033,-0.0044,-0.0044,-0.0043,-0.0043,-0.0043,0,0.0147,0.0179,0.022,0.0243,0.0307,0.0313,0.0373,0.0376,0.04,0.0446,0.0379,0.0389,0.0285,0.022,0.0126,0.0028,0.0033,-0.0045,-0.006,-0.0022,-0.0019,-0.0037,-0.0036,-0.0045,-0.0045,-0.0045,-0.0044,0,0.0163,0.0184,0.0238,0.029,0.0319,0.0367,0.0451,0.049,0.0493,0.0547,0.055,0.0484,0.0397,0.0272,0.0149,0.0066,-0.0039,-0.0081,-0.0037,-0.0048,-0.0101,-0.0097,-0.0144,-0.0145,-0.0146,-0.0146,-0.0146,0,0.0174,0.0202,0.0284,0.0337,0.0367,0.0447,0.0508,0.0543,0.059,0.0605,0.0634,0.0557,0.0497,0.0311,0.017,-0.002,-0.005,-0.0113,-0.0108,-0.0101,-0.0111,-0.0106,-0.0102,-0.0147,-0.0148,-0.0148,-0.0148,0,0.0207,0.0232,0.0285,0.0389,0.0465,0.0563,0.0646,0.069,0.073,0.0729,0.0709,0.0599,0.0497,0.033,0.0174,0.0038,-0.0075,-0.012,-0.012,-0.0115,-0.0105,-0.0114,-0.0109,-0.015,-0.015,-0.0149,-0.0149,0,0.0236,0.0282,0.0352,0.0447,0.0545,0.0648,0.0693,0.0748,0.0795,0.0795,0.0786,0.0652,0.0574,0.0359,0.0218,0.0079,0.0048,-0.0002,-0.0009,-0.0008,0.0042,0.0074,0.0072,0,0,0,0,0,0.0269,0.0327,0.0411,0.0518,0.0609,0.0672,0.0773,0.0805,0.0838,0.0836,0.0815,0.0712,0.05,0.0399,0.0263,0.0207,0.0021,0.004,-0.004,-0.0161,-0.0159,-0.0125,0,0,0,0,0,0,0.0296,0.0374,0.0416,0.0555,0.0631,0.0747,0.0813,0.084,0.0838,0.0834,0.0723,0.0664,0.0458,0.0577,0.0254,0.0211,0.0139,-0.0061,-0.0064,-0.0163,-0.016,-0.0159,-0.0123,0,0,0,0,0]}]]